GSAT0212 (GALILEO 16) (41860 NORAD) Tracking and Keplerian Element Data

This shows tracking and keplerian element data for the satellite.

Feedback or suggestion? Click here.




ElementValue
Catalog41860
NameGSAT0212 (GALILEO 16)
Epoch Orbit3009
Epoch Day260.2453208
Epoch Year2021
RAAN149.1619
Inclination54.7355
Eccentricity0.0002712
Argument of Perigee348.4267
Mean Anonmoly11.6325
Mean Motion1.70472756
Decay Rate-1.7E-07
L11 41860U 16069B 21260.24532080 -.00000017 00000-0 00000-0 0 9995
L22 41860 54.7355 149.1619 0002712 348.4267 11.6325 1.70472756 30096

Live tracking and technical data element details for GSAT0212 (GALILEO 16) (NORAD 41860). GSAT0212 (GALILEO 16) can be tracked NOW for your location showing map with azimuth and elevation plus other details from your city location.

Track the satellite on the map from your city or location and see movement details for azimuth, elevation, latitude, longitude, range, height, and movement on the map or in text.







IsCatalogInMostPopularTable: catalog: 41860, numindb: 597
Update: records affected: 1



GetName: 41860 GSAT0212 (GALILEO 16)

Hit Count: updated at: Sat, 25 Sep 2021 23:49:32 GMT